Cloud_Cover
0 0 0 0 0 0 0 0 0 0 0 0 0 0 0 0 0 0 4 5 5 5 5 5 21 100 100 94 53 99 85 100 94 85 100 46 77 100
0 0 0 0 0 0 0 0 0 0 0 0 0 0 0 0 0 0 36 4 3 5 5 25 92 100 100 100 99 100 100 100 100 100 100 98 99 100
0 0 0 0 0 0 0 0 0 0 0 0 0 0 0 0 0 0 1 0 6 2 2 4 32 10 98 100 100 100 100 100 100 100 100 53 68 34
0 0 0 0 0 0 0 0 0 0 0 0 0 0 0 0 0 0 5 4 5 6 5 5 28 36 5 57 98 86 99 100 100 100 100 23 29 48
0 0 0 0 0 0 0 0 1 4 3 5 2 0 0 0 0 0 0 0 0 5 68 98 86 99 98 70 9 71 88 100 99 100 64 84 26 38
0 0 0 0 0 0 0 0 0 0 3 5 5 5 5 3 2 5 2 0 0 0 0 0 5 84 84 68 32 7 13 57 100 91 100 38 22 20
0 0 0 0 0 0 0 0 0 0 0 5 5 5 22 23 10 5 2 6 91 68 4 39 5 6 65 21 46 100 100 95 99 68 5 5 5 6
0 0 0 0 0 0 0 0 0 0 0 0 5 5 43 15 14 100 100 97 19 100 93 5 5 16 96 100 76 100 100 72 43 52 5 2 5 34
0 0 0 0 0 0 0 0 0 0 0 0 1 1 2 5 43 92 100 100 100 99 100 6 5 5 79 100 43 91 0 0 0 0 0 0 0 0
0 0 0 0 0 0 0 0 0 0 0 0 0 0 0 0 3 5 22 62 100 60 78 13 4 10 72 100 87 0 0 0 0 0 5 0 0 0
0 0 0 0 0 0 0 0 0 0 0 0 0 0 0 0 0 3 71 99 83 54 16 16 35 79 100 94 5 0 0 0 0 0 0 0 0 0
0 0 0 0 0 0 0 0 0 0 0 0 0 9 39 0 0 2 70 79 17 71 8 80 100 92 100 47 2 0 0 0 0 0 0 0 0 35
0 0 0 0 0 0 0 0 0 0 0 0 0 0 0 0 2 14 6 13 32 64 35 82 61 100 100 99 3 0 0 0 0 0 0 0 3 97
0 0 0 0 0 17 24 18 8 48 0 0 0 0 0 4 4 81 97 54 91 100 27 14 40 82 99 61 0 0 0 0 0 0 0 0 0 23
0 0 1 0 83 38 20 30 5 6 39 24 22 23 9 30 79 46 58 66 70 8 24 24 10 42 10 1 0 0 0 0 0 0 0 0 38 87
0 7 2 11 77 99 100 100 99 86 26 71 67 77 72 62 26 43 49 100 53 1 5 5 5 1 0 0 0 0 0 0 4 0 0 1 39 100
0 0 3 32 100 100 92 100 100 100 100 100 71 100 100 100 54 20 92 94 7 5 23 0 8 0 0 0 0 0 0 0 0 0 0 0 42 100
5 4 5 90 100 100 100 100 100 100 100 100 100 100 100 100 98 100 62 98 45 73 8 4 30 60 44 0 0 0 0 0 0 0 0 9 3 48
5 34 100 100 100 100 100 100 100 100 100 100 100 100 100 100 100 100 68 81 91 5 7 62 100 98 5 5 1 4 0 0 0 0 1 9 25 14
9 100 100 100 100 100 100 100 100 100 100 100 100 100 100 100 100 100 100 100 100 59 100 92 28 16 93 41 36 5 98 0 1 5 5 5 0 0
86 100 100 100 100 100 100 100 100 100 100 100 100 100 100 100 100 100 100 100 100 100 100 100 93 15 4 5 1 4 2 0 0 0 0 0 4 4
100 100 100 100 100 100 100 100 100 100 100 100 100 100 100 100 100 100 100 100 100 100 100 100 100 100 16 1 7 1 3 5 0 0 0 0 0 0
46 19 52 100 100 100 100 100 100 100 100 100 100 100 100 99 100 100 100 100 100 100 100 100 100 56 25 0 23 12 36 7 34 10 99 8 4 5